User: anonymous   Login
Location: Unspecified
(0.0000°N, 0.0000°E)
Time: 09:52:35
(UTC+02:00)
Language:

Cosmos 1515 Rocket - Orbit

View from above orbital plane
View from above orbital plane
View from above satellite
View from above satellite

Ground track
Ground track

The orbit data is extracted from the following two-line orbital elements,

1 14552U 83122B   18175.89596285 +.00000070 +00000-0 +55894-5 0  9990
2 14552 082.5255 087.7040 0017642 015.5323 344.6429 14.83447441843345
Epoch (UTC): 24 June 2018 21:30:11
Eccentricity: 0.0017642
inclination: 82.5255°
perigee height: 606 km
apogee height: 631 km
right ascension of ascending node: 87.7040°
argument of perigee: 15.5323°
revolutions per day: 14.83447441
mean anomaly at epoch: 344.6429°
orbit number at epoch: 84334

The dashed part of the orbit path shows where the satellite is in the earth's shadow,  

DLR